This demonstration page uses our WeatherBlox Daily Observations layout. Learn more.

Left ArrowRight Arrow

Hourly Observations for July 31, 2022

Temp ( °F °C ) Dew Point ( °F °C ) Humidity (%) Winds ( mph kmh ) Pressure ( in mb ) Visibility ( mi km ) Precip ( " mm )
12:59 am 00:59 Mostly Cloudy 74 23.3 65 18.3 74 74 Calm 30.20 1023 10 16 0.00 0.00
1:59 am 01:59 Partly Cloudy 73 22.8 66 18.9 79 79 Calm 30.19 1022 10 16 0.00 0.00
2:59 am 02:59 Partly Cloudy 71 21.7 66 18.9 84 84 Calm 30.18 1022 10 16 0.00 0.00
3:59 am 03:59 Mostly Cloudy 72 22.2 67 19.4 84 84 Calm 30.18 1022 10 16 0.00 0.00
4:59 am 04:59 Mostly Cloudy 73 22.8 67 19.4 81 81 Calm 30.17 1022 10 16 0.00 0.00
5:59 am 05:59 Mostly Cloudy 73 22.8 68 20 84 84 Calm 30.17 1022 10 16 0.00 0.00
6:59 am 06:59 Mostly Cloudy 73 22.8 68 20 84 84 ESE 3 6 30.17 1022 10 16 0.00 0.00
7:59 am 07:59 Mostly Cloudy 77 25 68 20 74 74 ESE 3 6 30.19 1023 10 16 0.00 0.00
8:59 am 08:59 Cloudy 81 27.2 69 20.6 67 67 Calm 30.21 1023 10 16 0.00 0.00
9:59 am 09:59 Cloudy 81 27.2 66 18.9 61 61 ESE 6 9 30.19 1022 10 16 0.00 0.00
10:59 am 10:59 Cloudy 81 27.2 66 18.9 61 61 ESE 7 11 30.21 1023 10 16 0.00 0.00
11:59 am 11:59 Cloudy 82 27.8 65 18.3 56 56 S 9 15 30.20 1023 10 16 0.00 0.00
12:59 pm 12:59 Mostly Cloudy 82 27.8 64 17.8 55 55 SE 7 11 30.18 1022 10 16 0.00 0.00
1:59 pm 13:59 Cloudy 82 27.8 65 18.3 56 56 S 10 17 30.15 1021 10 16 0.00 0.00
2:59 pm 14:59 Cloudy 84 28.9 69 20.6 61 61 SE 10 17 30.12 1020 10 16 0.00 0.00
3:59 pm 15:59 Cloudy 84 28.9 68 20 59 59 SE 5 7 30.13 1020 10 16 0.00 0.00
4:59 pm 16:59 Cloudy with Light Rain 81 27.2 72 22.2 74 74 SSE 5 7 30.13 1020 8 13 0.00 0.00
5:10 pm 17:10 Cloudy with Thunderstorms 81 27.2 72 22.2 74 74 SE 5 7 30.13 1020 8 13 0.00 0.00
5:59 pm 17:59 Cloudy with Thunderstorms 81 27.2 75 23.9 82 82 S 10 17 30.14 1021 5 8 0.02 0.51
6:11 pm 18:11 Cloudy with Thunderstorms 81 27.2 75 23.9 82 82 SSW 10 17 30.12 1020 3 4 0.04 1.02
6:22 pm 18:22 Cloudy with Thunderstorms 81 27.2 75 23.9 82 82 SSE 7 11 30.10 1019 2 2 0.10 2.54
6:34 pm 18:34 Cloudy with Thunderstorms 76 24.4 73 22.8 91 91 ESE 3 6 30.09 1019 4 6 0.12 3.05
6:43 pm 18:43 Mostly Cloudy with Light Rain 76 24.4 73 22.8 91 91 SE 6 9 30.09 1019 6 10 0.13 3.30
6:59 pm 18:59 Cloudy with Light Rain 77 25 72 22.2 85 85 SSE 5 7 30.09 1019 4 6 0.16 4.06
7:59 pm 19:59 Cloudy 76 24.4 73 22.8 91 91 Calm 30.09 1019 9 14 0.03 0.76
8:25 pm 20:25 Mostly Cloudy 76 24.4 73 22.8 91 91 SW 3 6 30.09 1019 9 14 0.00 0.00
8:59 pm 20:59 Mostly Cloudy 76 24.4 73 22.8 91 91 Calm 30.08 1019 8 13 0.00 0.00
9:59 pm 21:59 Mostly Cloudy 76 24.4 73 22.8 91 91 Calm 30.07 1018 10 16 0.00 0.00
10:59 pm 22:59 Cloudy 76 24.4 73 22.8 91 91 S 6 9 30.07 1018 10 16 0.00 0.00
11:59 pm 23:59 Cloudy 76 24.4 73 22.8 91 91 S 5 7 30.07 1018 9 14 0.00 0.00

Powered by AerisWeather